Weather History for KPIB - March, 2013

Change the Weather History Date:

Friday, March 29, 2013

  Actual Average Record
Temperature  
Mean Temperature 55 °F -  
Max Temperature 73 °F 71 °F 84 °F (1997)
Min Temperature 37 °F 48 °F 37 °F (2013)
Degree Days  
Heating Degree Days 10    
Growing Degree Days 5 (Base 50)    
Moisture  
Dew Point 40 °F    
Average Humidity 58    
Maximum Humidity 93    
Minimum Humidity 25    
Precipitation  
Precipitation 0.00 in - - ()
Sea Level Pressure  
Sea Level Pressure 30.26 in    
Wind  
Wind Speed 3 mph (South)    
Max Wind Speed 14 mph    
Max Gust Speed 20 mph    
Visibility 9 miles    
Events      
Averages and records for this station are not official NWS values.
T = Trace of Precipitation, MM = Missing Value Source: NWS Daily Summary

Daily Weather History Graph

Daily Weather History Graph

Search for Another Location

Airport or City:

Trip Planner

Search our weather history database for the weather conditions in past years. The results will help you decide how hot, cold, wet, or windy it might be!

Date:

Astronomy

Mar. 29, 2013 Rise Set
Actual Time 6:49 AM CDT 7:15 PM CDT
Civil Twilight 6:25 AM CDT 7:39 PM CDT
Nautical Twilight 5:56 AM CDT 8:08 PM CDT
Astronomical Twilight 5:27 AM CDT 8:37 PM CDT
Moon 10:01 PM CDT (3/29) 8:09 AM CDT (3/29)
Length of Visible Light 13h 14m
Length of Day
12h 25m
Waning Gibbous, 93% of the Moon is Illuminated
Mar 29
Waning Gibbous
Apr 2
Last Quarter
Apr 10
New
Apr 18
First Quarter
Apr 25
Full

Hourly Weather History & Observations

Time (CDT) Temp. Dew Point Humidity Pressure Visibility Wind Dir Wind Speed Gust Speed Precip Events Conditions
12:15 AM 44.6 °F 37.4 °F 76% 30.30 in 10.0 mi Calm Calm - N/A   Clear
12:35 AM 42.8 °F 37.4 °F 81% 30.30 in 10.0 mi Calm Calm - N/A   Clear
12:55 AM 42.8 °F 37.4 °F 81% 30.30 in 10.0 mi Calm Calm - N/A   Clear
1:15 AM 42.8 °F 37.4 °F 81% 30.30 in 10.0 mi Calm Calm - N/A   Clear
1:35 AM 42.8 °F 35.6 °F 76% 30.30 in 10.0 mi Calm Calm - N/A   Clear
1:55 AM 42.8 °F 37.4 °F 81% 30.29 in 10.0 mi Calm Calm - N/A   Clear
2:15 AM 41.0 °F 35.6 °F 81% 30.29 in 10.0 mi Calm Calm - N/A   Clear
2:35 AM 41.0 °F 35.6 °F 81% 30.29 in 10.0 mi Calm Calm - N/A   Clear
2:55 AM 41.0 °F 35.6 °F 81% 30.29 in 10.0 mi Calm Calm - N/A   Clear
3:15 AM 41.0 °F 35.6 °F 81% 30.28 in 5.0 mi Calm Calm - N/A   Clear
3:35 AM 41.0 °F 35.6 °F 81% 30.28 in 4.0 mi Calm Calm - N/A   Clear
3:55 AM 39.2 °F 35.6 °F 87% 30.28 in 4.0 mi Calm Calm - N/A   Clear
4:15 AM 39.2 °F 35.6 °F 87% 30.28 in 4.0 mi Calm Calm - N/A   Clear
4:35 AM 39.2 °F 35.6 °F 87% 30.28 in 4.0 mi Calm Calm - N/A   Clear
4:55 AM 39.2 °F 35.6 °F 87% 30.29 in 4.0 mi Calm Calm - N/A   Clear
5:15 AM 39.2 °F 35.6 °F 87% 30.29 in 5.0 mi Calm Calm - N/A   Clear
5:35 AM 39.2 °F 35.6 °F 87% 30.29 in 5.0 mi Calm Calm - N/A   Clear
5:55 AM 39.2 °F 35.6 °F 87% 30.30 in 4.0 mi Calm Calm - N/A   Clear
6:15 AM 39.2 °F 35.6 °F 87% 30.30 in 4.0 mi Calm Calm - N/A   Clear
6:35 AM 39.2 °F 35.6 °F 87% 30.30 in 4.0 mi Calm Calm - N/A   Clear
6:55 AM 37.4 °F 35.6 °F 93% 30.30 in 2.0 mi Calm Calm - N/A   Clear
7:15 AM 39.2 °F 37.4 °F 93% 30.31 in 2.5 mi Calm Calm - N/A   Clear
7:35 AM 39.2 °F 35.6 °F 87% 30.31 in 3.0 mi Calm Calm - N/A   Clear
7:55 AM 44.6 °F 41.0 °F 87% 30.32 in 4.0 mi Calm Calm - N/A   Clear
8:15 AM 46.4 °F 42.8 °F 87% 30.33 in 5.0 mi Calm Calm - N/A   Clear
8:35 AM 50.0 °F 44.6 °F 82% 30.33 in 7.0 mi Calm Calm - N/A   Clear
8:55 AM 53.6 °F 46.4 °F 77% 30.33 in 10.0 mi Calm Calm - N/A   Clear
9:15 AM 55.4 °F 46.4 °F 72% 30.33 in 10.0 mi Calm Calm - N/A   Clear
9:35 AM 57.2 °F 46.4 °F 67% 30.34 in 10.0 mi Calm Calm - N/A   Clear
9:55 AM 60.8 °F 46.4 °F 59% 30.33 in 10.0 mi SSE 4.6 mph - N/A   Clear
10:15 AM 62.6 °F 44.6 °F 52% 30.32 in 10.0 mi SSE 4.6 mph - N/A   Clear
10:35 AM 64.4 °F 42.8 °F 45% 30.31 in 10.0 mi SSE 5.8 mph - N/A   Clear
10:55 AM 66.2 °F 39.2 °F 37% 30.32 in 10.0 mi South 9.2 mph - N/A   Clear
11:15 AM 66.2 °F 37.4 °F 35% 30.31 in 10.0 mi South 8.1 mph - N/A   Clear
11:55 AM 68.0 °F 39.2 °F 35% 30.30 in 10.0 mi South 8.1 mph - N/A   Clear
12:15 PM 69.8 °F 35.6 °F 28% 30.29 in 10.0 mi South 11.5 mph 19.6 mph N/A   Clear
12:35 PM 71.6 °F 33.8 °F 25% 30.28 in 10.0 mi SSW 11.5 mph 18.4 mph N/A   Clear
12:55 PM 71.6 °F 33.8 °F 25% 30.27 in 10.0 mi South 9.2 mph 17.3 mph N/A   Clear
1:15 PM 71.6 °F 35.6 °F 27% 30.26 in 10.0 mi South 12.7 mph 19.6 mph N/A   Clear
1:35 PM 73.4 °F 35.6 °F 25% 30.25 in 10.0 mi SSE 12.7 mph 16.1 mph N/A   Clear
1:56 PM 73.4 °F 35.6 °F 25% 30.25 in 10.0 mi South 11.5 mph 17.3 mph N/A   Clear
2:15 PM 73.4 °F 35.6 °F 25% 30.24 in 10.0 mi South 13.8 mph 19.6 mph N/A   Clear
2:35 PM 73.4 °F 37.4 °F 27% 30.22 in 10.0 mi South 10.4 mph 16.1 mph N/A   Clear
2:55 PM 73.4 °F 37.4 °F 27% 30.21 in 10.0 mi SSW 4.6 mph - N/A   Clear
3:15 PM 73.4 °F 37.4 °F 27% 30.21 in 10.0 mi South 8.1 mph - N/A   Clear
3:35 PM 73.4 °F 37.4 °F 27% 30.20 in 10.0 mi South 8.1 mph - N/A   Partly Cloudy
3:55 PM 73.4 °F 37.4 °F 27% 30.20 in 10.0 mi SSW 4.6 mph - N/A   Partly Cloudy
4:15 PM 73.4 °F 37.4 °F 27% 30.20 in 10.0 mi South 5.8 mph - N/A   Clear
4:35 PM 73.4 °F 37.4 °F 27% 30.19 in 10.0 mi SW 4.6 mph - N/A   Clear
4:55 PM 73.4 °F 37.4 °F 27% 30.19 in 10.0 mi South 6.9 mph - N/A   Clear
5:15 PM 73.4 °F 37.4 °F 27% 30.19 in 10.0 mi WSW 9.2 mph - N/A   Partly Cloudy
5:35 PM 73.4 °F 39.2 °F 29% 30.19 in 10.0 mi WSW 4.6 mph - N/A   Scattered Clouds
5:55 PM 71.6 °F 39.2 °F 31% 30.19 in 10.0 mi SSW 6.9 mph - N/A   Overcast
6:15 PM 71.6 °F 39.2 °F 31% 30.19 in 10.0 mi SW 3.5 mph - N/A   Overcast
6:35 PM 71.6 °F 41.0 °F 33% 30.19 in 10.0 mi South 5.8 mph - N/A   Scattered Clouds
6:55 PM 69.8 °F 41.0 °F 35% 30.19 in 10.0 mi SSW 4.6 mph - N/A   Clear
7:15 PM 68.0 °F 39.2 °F 35% 30.19 in 10.0 mi SSW 5.8 mph - N/A   Clear
7:35 PM 66.2 °F 37.4 °F 35% 30.19 in 10.0 mi SSW 4.6 mph - N/A   Clear
7:55 PM 64.4 °F 39.2 °F 40% 30.19 in 10.0 mi SSW 4.6 mph - N/A   Clear
8:15 PM 62.6 °F 39.2 °F 42% 30.19 in 10.0 mi SSW 5.8 mph - N/A   Clear
8:35 PM 62.6 °F 39.2 °F 42% 30.20 in 10.0 mi South 5.8 mph - N/A   Clear
8:55 PM 60.8 °F 44.6 °F 55% 30.21 in 10.0 mi South 8.1 mph - N/A   Clear
9:15 PM 60.8 °F 46.4 °F 59% 30.22 in 10.0 mi South 8.1 mph - N/A   Clear
9:35 PM 60.8 °F 48.2 °F 63% 30.22 in 10.0 mi South 9.2 mph - N/A   Clear
9:55 PM 60.8 °F 48.2 °F 63% 30.23 in 10.0 mi South 8.1 mph - N/A   Clear
10:15 PM 60.8 °F 50.0 °F 68% 30.22 in 10.0 mi South 8.1 mph - N/A   Clear
10:35 PM 59.0 °F 50.0 °F 72% 30.22 in 10.0 mi South 8.1 mph - N/A   Clear
10:55 PM 57.2 °F 50.0 °F 77% 30.22 in 10.0 mi South 6.9 mph - N/A   Clear
11:15 PM 57.2 °F 50.0 °F 77% 30.21 in 10.0 mi South 6.9 mph - N/A   Clear
11:35 PM 57.2 °F 50.0 °F 77% 30.21 in 10.0 mi South 5.8 mph - N/A   Clear
11:55 PM 55.4 °F 48.2 °F 77% 30.21 in 10.0 mi South 5.8 mph - N/A   Clear